Change the Weather History Date:

Wednesday, November 14, 2012

  Actual Average Record
Temperature  
Mean Temperature 26 °F 29 °F  
Max Temperature 40 °F 38 °F 69 °F (1939)
Min Temperature 12 °F 21 °F -20 °F (1940)
Degree Days  
Heating Degree Days 39 36  
Month to date heating degree days 519 450  
Since 1 July heating degree days 1475 1410  
Moisture  
Dew Point 20 °F    
Average Humidity 80    
Maximum Humidity 96    
Minimum Humidity 64    
Precipitation  
Precipitation 0.00 in 0.03 in 0.54 in (1964)
Month to date precipitation 0.58 0.41  
Year to date precipitation 13.53 16.47  
Sea Level Pressure  
Sea Level Pressure 30.07 in    
Wind  
Wind Speed 7 mph (SSW)    
Max Wind Speed 16 mph    
Max Gust Speed 21 mph    
Visibility 7 miles    
Events      
T = Trace of Precipitation, MM = Missing Value Source: NWS Daily Summary

Daily Weather History Graph

Daily Weather History Graph

Search for Another Location

Airport or City:

Trip Planner

Search our weather history database for the weather conditions in past years. The results will help you decide how hot, cold, wet, or windy it might be!

Date:

Astronomy

Nov. 14, 2012 Rise Set
Actual Time 7:51 AM CST 5:07 PM CST
Civil Twilight 7:17 AM CST 5:41 PM CST
Nautical Twilight 6:39 AM CST 6:19 PM CST
Astronomical Twilight 6:02 AM CST 6:55 PM CST
Moon 8:47 AM CST (11/14) 5:52 PM CST (11/14)
Length of Visible Light 10h 23m
Length of Day
9h 15m
New Moon, 1% of the Moon is Illuminated
Nov 14
New Moon
Nov 20
First Quarter
Nov 28
Full
Dec 6
Last Quarter
Dec 13
New

Hourly Weather History & Observations

Time (CST) Temp. Windchill Dew Point Humidity Pressure Visibility Wind Dir Wind Speed Gust Speed Precip Events Conditions
12:54 AM 15.1 °F 9.4 °F 12.0 °F 88% 30.18 in 5.0 mi SSE 3.5 mph - N/A   Clear
1:54 AM 12.9 °F - 10.9 °F 92% 30.17 in 4.0 mi Calm Calm - N/A   Clear
2:39 AM 15.8 °F - 12.2 °F 86% 30.07 in 2.5 mi Calm Calm - N/A   Clear
2:49 AM 12.2 °F - 10.4 °F 92% 30.07 in 3.0 mi Calm Calm - N/A   Clear
2:54 AM 14.0 °F - 10.0 °F 84% 30.17 in 3.0 mi Calm Calm - N/A   Clear
3:01 AM 17.6 °F - 14.0 °F 86% 30.07 in 2.0 mi Calm Calm - N/A   Clear
3:17 AM 12.2 °F - 8.6 °F 85% 30.07 in 1.5 mi Calm Calm - N/A   Clear
3:23 AM 15.8 °F 10.2 °F 12.2 °F 86% 30.07 in 3.0 mi South 3.5 mph - N/A   Clear
3:54 AM 15.1 °F - 10.9 °F 84% 30.16 in 3.0 mi Calm Calm - N/A   Clear
4:04 AM 17.6 °F 9.3 °F 14.0 °F 86% 30.06 in 2.5 mi South 5.8 mph - N/A   Clear
4:12 AM 15.8 °F 8.6 °F 12.2 °F 86% 30.06 in 5.0 mi SSW 4.6 mph - N/A   Clear
4:54 AM 23.0 °F 14.7 °F 19.9 °F 88% 30.14 in 10.0 mi SW 6.9 mph - N/A   Clear
5:54 AM 18.0 °F 12.7 °F 15.1 °F 88% 30.13 in 4.0 mi SE 3.5 mph - N/A   Clear
6:00 AM 19.4 °F 12.8 °F 15.8 °F 86% 30.03 in 1.8 mi SE 4.6 mph - N/A   Clear
6:09 AM 17.6 °F 12.3 °F 15.8 °F 93% 30.03 in 0.8 mi SSE 3.5 mph - N/A   Clear
6:13 AM 17.6 °F 10.7 °F 15.8 °F 93% 30.03 in 2.5 mi SE 4.6 mph - N/A   Clear
6:20 AM 17.6 °F 10.7 °F 15.8 °F 93% 30.03 in 5.0 mi SE 4.6 mph - N/A   Clear
6:54 AM 18.0 °F 8.7 °F 16.0 °F 92% 30.12 in 7.0 mi South 6.9 mph - N/A   Clear
7:54 AM 16.0 °F 1.7 °F 14.0 °F 92% 30.12 in 7.0 mi SSW 13.8 mph - N/A   Clear
8:54 AM 21.9 °F 10.4 °F 19.0 °F 89% 30.11 in 8.0 mi SSW 11.5 mph - N/A   Clear
9:54 AM 23.0 °F 14.7 °F 21.9 °F 96% 30.10 in 6.0 mi South 6.9 mph - N/A   Clear
10:54 AM 30.9 °F 22.2 °F 26.1 °F 82% 30.09 in 10.0 mi SSW 10.4 mph - N/A   Clear
11:54 AM 35.1 °F 26.4 °F 27.0 °F 72% 30.06 in 10.0 mi SSW 12.7 mph - N/A   Clear
12:54 PM 37.9 °F 30.5 °F 28.0 °F 68% 30.04 in 10.0 mi SW 11.5 mph - N/A   Overcast
1:54 PM 37.9 °F 32.1 °F 28.9 °F 70% 30.03 in 10.0 mi SW 8.1 mph - N/A   Overcast
2:54 PM 39.0 °F 33.4 °F 28.9 °F 67% 30.02 in 10.0 mi WSW 8.1 mph - N/A   Scattered Clouds
3:54 PM 37.9 °F 30.9 °F 28.9 °F 70% 30.01 in 10.0 mi SW 10.4 mph - N/A   Clear
4:54 PM 37.0 °F 29.8 °F 28.0 °F 70% 30.00 in 10.0 mi SW 10.4 mph - N/A   Clear
5:54 PM 37.0 °F 28.1 °F 28.0 °F 70% 30.01 in 10.0 mi SW 15.0 mph - N/A   Clear
6:54 PM 37.0 °F 27.7 °F 28.0 °F 70% 30.02 in 10.0 mi SW 16.1 mph - N/A   Clear
7:54 PM 36.0 °F 27.1 °F 28.0 °F 73% 30.05 in 10.0 mi West 13.8 mph 21.9 mph N/A   Clear
8:54 PM 35.1 °F 26.9 °F 27.0 °F 72% 30.06 in 10.0 mi WSW 11.5 mph - N/A   Clear
9:15 PM 33.8 °F 23.5 °F 26.6 °F 75% 29.99 in 10.0 mi WSW 16.1 mph - N/A   Clear
9:54 PM 34.0 °F 22.7 °F 26.1 °F 73% 30.07 in 10.0 mi WSW 19.6 mph - N/A   Clear
10:54 PM 30.9 °F 21.2 °F 25.0 °F 79% 30.10 in 10.0 mi West 12.7 mph - N/A   Clear
11:54 PM 30.0 °F 16.3 °F 24.1 °F 79% 30.13 in 10.0 mi West 24.2 mph - N/A   Clear